Time,TemperatureF,DewpointF,PressureIn,WindDirection,WindDirectionDegrees,WindSpeedMPH,WindSpeedGustMPH,Humidity,HourlyPrecipIn,Conditions,Clouds,dailyrainin,SoftwareType,DateUTC
2013-04-23 00:01:00,52.1,38.6,30.28,ESE,105,3.0,-999.0,60,0.00,,,0.00,Wunderground v.1.15,2013-04-23 04:01:00,
2013-04-23 00:02:00,52.1,38.6,30.28,NNE,23,3.0,-999.0,60,0.00,,,0.00,Wunderground v.1.15,2013-04-23 04:02:00,
2013-04-23 00:03:00,52.1,39.1,30.28,NNE,14,2.0,-999.0,61,0.00,,,0.00,Wunderground v.1.15,2013-04-23 04:03:00,
2013-04-23 00:04:00,52.0,39.0,30.28,NNW,339,3.0,-999.0,61,0.00,,,0.00,Wunderground v.1.15,2013-04-23 04:04:00,
2013-04-23 00:06:00,52.0,39.0,30.28,ENE,58,3.0,-999.0,61,0.00,,,0.00,Wunderground v.1.15,2013-04-23 04:06:00,
2013-04-23 00:12:00,51.9,38.9,30.27,ENE,61,3.0,-999.0,61,0.00,,,0.00,Wunderground v.1.15,2013-04-23 04:12:00,
2013-04-23 00:18:00,51.8,38.8,30.27,NNE,25,3.0,-999.0,61,0.00,,,0.00,Wunderground v.1.15,2013-04-23 04:18:00,
2013-04-23 00:24:00,51.5,38.9,30.27,ENE,69,3.0,-999.0,62,0.00,,,0.00,Wunderground v.1.15,2013-04-23 04:24:00,
2013-04-23 00:30:00,51.5,38.9,30.27,NE,54,3.0,-999.0,62,0.00,,,0.00,Wunderground v.1.15,2013-04-23 04:30:00,
2013-04-23 00:36:00,51.5,38.9,30.27,ENE,74,3.0,-999.0,62,0.00,,,0.00,Wunderground v.1.15,2013-04-23 04:36:00,
2013-04-23 00:42:00,51.5,38.9,30.27,NE,49,2.0,-999.0,62,0.00,,,0.00,Wunderground v.1.15,2013-04-23 04:42:00,
2013-04-23 00:47:00,51.4,38.8,30.27,NNE,19,3.0,-999.0,62,0.00,,,0.00,Wunderground v.1.15,2013-04-23 04:47:00,
2013-04-23 00:53:00,51.4,39.2,30.27,ENE,66,3.0,-999.0,63,0.00,,,0.00,Wunderground v.1.15,2013-04-23 04:53:00,
2013-04-23 00:59:00,51.3,39.1,30.27,ENE,60,3.0,-999.0,63,0.00,,,0.00,Wunderground v.1.15,2013-04-23 04:59:00,
2013-04-23 01:05:00,51.2,39.0,30.27,NNE,30,3.0,-999.0,63,0.00,,,0.00,Wunderground v.1.15,2013-04-23 05:05:00,
2013-04-23 01:10:00,51.1,38.9,30.27,NNE,23,3.0,-999.0,63,0.00,,,0.00,Wunderground v.1.15,2013-04-23 05:10:00,
2013-04-23 01:16:00,51.0,39.2,30.27,NNE,29,3.0,-999.0,64,0.00,,,0.00,Wunderground v.1.15,2013-04-23 05:16:00,
2013-04-23 01:22:00,50.9,39.5,30.27,NE,37,4.0,-999.0,65,0.00,,,0.00,Wunderground v.1.15,2013-04-23 05:22:00,
2013-04-23 01:28:00,50.8,39.5,30.27,NE,54,3.0,-999.0,65,0.00,,,0.00,Wunderground v.1.15,2013-04-23 05:28:00,
2013-04-23 01:34:00,50.7,39.7,30.27,North,5,3.0,-999.0,66,0.00,,,0.00,Wunderground v.1.15,2013-04-23 05:34:00,
2013-04-23 01:40:00,50.6,39.7,30.27,East,101,3.0,-999.0,66,0.00,,,0.00,Wunderground v.1.15,2013-04-23 05:40:00,
2013-04-23 01:46:00,50.5,39.6,30.27,NNE,24,3.0,-999.0,66,0.00,,,0.00,Wunderground v.1.15,2013-04-23 05:46:00,
2013-04-23 01:51:00,50.4,39.9,30.27,NE,38,3.0,-999.0,67,0.00,,,0.00,Wunderground v.1.15,2013-04-23 05:51:00,
2013-04-23 01:57:00,50.3,39.8,30.27,East,97,4.0,-999.0,67,0.00,,,0.00,Wunderground v.1.15,2013-04-23 05:57:00,
2013-04-23 02:03:00,50.3,40.1,30.27,NE,36,3.0,-999.0,68,0.00,,,0.00,Wunderground v.1.15,2013-04-23 06:03:00,
2013-04-23 02:09:00,50.1,40.7,30.27,NE,49,3.0,-999.0,70,0.00,,,0.00,Wunderground v.1.15,2013-04-23 06:09:00,
2013-04-23 02:15:00,49.8,41.1,30.27,NNE,13,3.0,-999.0,72,0.00,,,0.00,Wunderground v.1.15,2013-04-23 06:15:00,
2013-04-23 02:21:00,49.4,41.5,30.27,NNE,30,3.0,-999.0,74,0.00,,,0.00,Wunderground v.1.15,2013-04-23 06:21:00,
2013-04-23 02:27:00,49.1,41.9,30.27,NE,48,2.0,-999.0,76,0.00,,,0.00,Wunderground v.1.15,2013-04-23 06:27:00,
2013-04-23 02:33:00,48.8,41.9,30.26,ESE,123,2.0,-999.0,77,0.00,,,0.00,Wunderground v.1.15,2013-04-23 06:33:00,
2013-04-23 02:38:00,48.6,41.7,30.26,ENE,58,2.0,-999.0,77,0.00,,,0.00,Wunderground v.1.15,2013-04-23 06:38:00,
2013-04-23 02:44:00,48.5,42.0,30.26,NE,38,2.0,-999.0,78,0.00,,,0.00,Wunderground v.1.15,2013-04-23 06:44:00,
2013-04-23 02:50:00,48.3,41.8,30.25,ENE,59,3.0,-999.0,78,0.00,,,0.00,Wunderground v.1.15,2013-04-23 06:50:00,
2013-04-23 02:56:00,48.2,41.7,30.25,NNE,26,4.0,-999.0,78,0.00,,,0.00,Wunderground v.1.15,2013-04-23 06:56:00,
2013-04-23 03:01:00,48.1,41.6,30.25,NNE,24,4.0,-999.0,78,0.00,,,0.00,Wunderground v.1.15,2013-04-23 07:01:00,
2013-04-23 03:07:00,47.9,41.7,30.25,NNW,348,3.0,-999.0,79,0.00,,,0.00,Wunderground v.1.15,2013-04-23 07:07:00,
2013-04-23 03:13:00,47.7,41.5,30.25,NE,47,4.0,-999.0,79,0.00,,,0.00,Wunderground v.1.15,2013-04-23 07:13:00,
2013-04-23 03:19:00,47.6,41.7,30.24,NNE,24,4.0,-999.0,80,0.00,,,0.00,Wunderground v.1.15,2013-04-23 07:19:00,
2013-04-23 03:25:00,47.5,41.6,30.24,NNE,17,3.0,-999.0,80,0.00,,,0.00,Wunderground v.1.15,2013-04-23 07:25:00,
2013-04-23 03:31:00,47.4,41.5,30.24,NNE,22,3.0,-999.0,80,0.00,,,0.00,Wunderground v.1.15,2013-04-23 07:31:00,
2013-04-23 03:37:00,47.4,41.5,30.24,NE,41,4.0,-999.0,80,0.00,,,0.00,Wunderground v.1.15,2013-04-23 07:37:00,
2013-04-23 03:42:00,47.3,41.8,30.24,NNE,31,4.0,-999.0,81,0.00,,,0.00,Wunderground v.1.15,2013-04-23 07:42:00,
2013-04-23 03:48:00,47.4,41.9,30.24,NE,42,4.0,-999.0,81,0.00,,,0.00,Wunderground v.1.15,2013-04-23 07:48:00,
2013-04-23 03:54:00,47.4,41.5,30.24,NNW,348,4.0,-999.0,80,0.00,,,0.00,Wunderground v.1.15,2013-04-23 07:54:00,
2013-04-23 04:00:00,47.4,41.9,30.24,NE,35,3.0,-999.0,81,0.00,,,0.00,Wunderground v.1.15,2013-04-23 08:00:00,
2013-04-23 04:05:00,47.4,41.9,30.24,NE,52,4.0,-999.0,81,0.00,,,0.00,Wunderground v.1.15,2013-04-23 08:05:00,
2013-04-23 04:11:00,47.2,42.0,30.24,North,10,5.0,-999.0,82,0.00,,,0.00,Wunderground v.1.15,2013-04-23 08:11:00,
2013-04-23 04:17:00,47.0,41.8,30.24,NE,34,4.0,-999.0,82,0.00,,,0.00,Wunderground v.1.15,2013-04-23 08:17:00,
2013-04-23 04:23:00,47.0,41.8,30.25,North,5,4.0,-999.0,82,0.00,,,0.00,Wunderground v.1.15,2013-04-23 08:23:00,
2013-04-23 04:29:00,47.0,42.1,30.24,NNE,24,4.0,-999.0,83,0.00,,,0.00,Wunderground v.1.15,2013-04-23 08:29:00,
2013-04-23 04:35:00,46.8,41.9,30.24,NNE,25,3.0,-999.0,83,0.00,,,0.00,Wunderground v.1.15,2013-04-23 08:35:00,
2013-04-23 04:41:00,46.7,41.8,30.24,NE,47,3.0,-999.0,83,0.00,,,0.00,Wunderground v.1.15,2013-04-23 08:41:00,
2013-04-23 04:46:00,46.7,42.1,30.24,NNE,19,3.0,-999.0,84,0.00,,,0.01,Wunderground v.1.15,2013-04-23 08:46:00,
2013-04-23 04:52:00,46.6,42.3,30.24,North,360,3.0,-999.0,85,0.00,,,0.01,Wunderground v.1.15,2013-04-23 08:52:00,
2013-04-23 04:58:00,46.5,41.9,30.24,NNE,19,3.0,-999.0,84,0.00,,,0.01,Wunderground v.1.15,2013-04-23 08:58:00,
2013-04-23 05:04:00,46.5,41.9,30.24,NNE,33,4.0,-999.0,84,0.00,,,0.01,Wunderground v.1.15,2013-04-23 09:04:00,
2013-04-23 05:09:00,46.4,41.8,30.24,NE,39,4.0,-999.0,84,0.00,,,0.01,Wunderground v.1.15,2013-04-23 09:09:00,
2013-04-23 05:15:00,46.4,41.8,30.24,NE,46,4.0,-999.0,84,0.00,,,0.01,Wunderground v.1.15,2013-04-23 09:15:00,
2013-04-23 05:21:00,46.4,42.1,30.23,NE,42,4.0,-999.0,85,0.00,,,0.01,Wunderground v.1.15,2013-04-23 09:21:00,
2013-04-23 05:27:00,46.4,42.1,30.23,NNE,28,3.0,-999.0,85,0.00,,,0.01,Wunderground v.1.15,2013-04-23 09:27:00,
2013-04-23 05:32:00,46.4,42.1,30.23,NE,36,3.0,-999.0,85,0.00,,,0.01,Wunderground v.1.15,2013-04-23 09:32:00,
2013-04-23 05:38:00,46.4,42.1,30.23,NNE,21,2.0,-999.0,85,0.00,,,0.01,Wunderground v.1.15,2013-04-23 09:38:00,
2013-04-23 05:44:00,46.5,41.9,30.23,NNE,29,3.0,-999.0,84,0.00,,,0.01,Wunderground v.1.15,2013-04-23 09:44:00,
2013-04-23 05:50:00,46.6,42.0,30.23,North,5,3.0,-999.0,84,0.00,,,0.01,Wunderground v.1.15,2013-04-23 09:50:00,
2013-04-23 05:55:00,46.6,41.7,30.23,NE,34,3.0,-999.0,83,0.00,,,0.01,Wunderground v.1.15,2013-04-23 09:55:00,
2013-04-23 06:01:00,46.7,41.8,30.23,NE,48,3.0,-999.0,83,0.00,,,0.01,Wunderground v.1.15,2013-04-23 10:01:00,
2013-04-23 06:07:00,46.7,41.8,30.23,NNE,29,4.0,-999.0,83,0.00,,,0.01,Wunderground v.1.15,2013-04-23 10:07:00,
2013-04-23 06:13:00,46.7,41.8,30.23,NE,53,4.0,-999.0,83,0.00,,,0.01,Wunderground v.1.15,2013-04-23 10:13:00,
2013-04-23 06:18:00,46.7,41.8,30.23,NNE,21,4.0,-999.0,83,0.00,,,0.01,Wunderground v.1.15,2013-04-23 10:18:00,
2013-04-23 06:24:00,46.7,41.5,30.23,NNE,31,5.0,-999.0,82,0.00,,,0.01,Wunderground v.1.15,2013-04-23 10:24:00,
2013-04-23 06:30:00,46.7,41.8,30.23,NE,45,5.0,-999.0,83,0.00,,,0.01,Wunderground v.1.15,2013-04-23 10:30:00,
2013-04-23 06:36:00,46.6,41.7,30.23,NNE,30,4.0,-999.0,83,0.00,,,0.01,Wunderground v.1.15,2013-04-23 10:36:00,
2013-04-23 06:41:00,46.6,41.7,30.23,NNE,17,4.0,-999.0,83,0.00,,,0.01,Wunderground v.1.15,2013-04-23 10:41:00,
2013-04-23 06:47:00,46.6,41.7,30.23,ENE,63,5.0,-999.0,83,0.00,,,0.01,Wunderground v.1.15,2013-04-23 10:47:00,
2013-04-23 06:53:00,46.5,41.6,30.23,NNE,28,4.0,-999.0,83,0.00,,,0.01,Wunderground v.1.15,2013-04-23 10:53:00,
2013-04-23 06:59:00,46.5,41.9,30.23,North,5,4.0,-999.0,84,0.00,,,0.01,Wunderground v.1.15,2013-04-23 10:59:00,
2013-04-23 07:04:00,46.5,41.9,30.23,North,355,4.0,-999.0,84,0.00,,,0.01,Wunderground v.1.15,2013-04-23 11:04:00,
2013-04-23 07:10:00,46.5,41.9,30.23,NE,54,3.0,-999.0,84,0.00,,,0.01,Wunderground v.1.15,2013-04-23 11:10:00,
2013-04-23 07:16:00,46.6,41.7,30.23,NNE,21,4.0,-999.0,83,0.00,,,0.01,Wunderground v.1.15,2013-04-23 11:16:00,
2013-04-23 07:23:00,46.7,41.8,30.23,NNE,30,4.0,-999.0,83,0.00,,,0.01,Wunderground v.1.15,2013-04-23 11:23:00,
2013-04-23 07:29:00,46.8,41.9,30.23,NE,46,4.0,-999.0,83,0.00,,,0.01,Wunderground v.1.15,2013-04-23 11:29:00,
2013-04-23 07:35:00,46.9,42.0,30.24,ESE,123,3.0,-999.0,83,0.00,,,0.01,Wunderground v.1.15,2013-04-23 11:35:00,
2013-04-23 07:41:00,47.0,41.8,30.24,NNE,26,3.0,-999.0,82,0.00,,,0.01,Wunderground v.1.15,2013-04-23 11:41:00,
2013-04-23 07:46:00,47.1,41.9,30.24,NNE,21,3.0,-999.0,82,0.00,,,0.01,Wunderground v.1.15,2013-04-23 11:46:00,
2013-04-23 07:52:00,47.1,41.6,30.24,North,5,5.0,-999.0,81,0.00,,,0.01,Wunderground v.1.15,2013-04-23 11:52:00,
2013-04-23 07:58:00,47.2,41.7,30.24,NNE,28,5.0,-999.0,81,0.00,,,0.01,Wunderground v.1.15,2013-04-23 11:58:00,
2013-04-23 08:04:00,47.4,41.9,30.24,NNE,29,3.0,-999.0,81,0.00,,,0.01,Wunderground v.1.15,2013-04-23 12:04:00,
2013-04-23 08:09:00,47.6,42.1,30.24,NNE,13,4.0,-999.0,81,0.00,,,0.01,Wunderground v.1.15,2013-04-23 12:09:00,
2013-04-23 08:15:00,47.6,42.1,30.24,North,10,4.0,-999.0,81,0.00,,,0.01,Wunderground v.1.15,2013-04-23 12:15:00,
2013-04-23 08:21:00,47.8,41.9,30.24,ENE,71,4.0,-999.0,80,0.00,,,0.01,Wunderground v.1.15,2013-04-23 12:21:00,
2013-04-23 08:26:00,47.9,42.0,30.24,North,355,4.0,-999.0,80,0.00,,,0.01,Wunderground v.1.15,2013-04-23 12:26:00,
2013-04-23 08:32:00,48.2,42.0,30.24,NNE,28,4.0,-999.0,79,0.00,,,0.01,Wunderground v.1.15,2013-04-23 12:32:00,
2013-04-23 08:38:00,48.4,42.5,30.24,NNE,17,4.0,-999.0,80,0.00,,,0.01,Wunderground v.1.15,2013-04-23 12:38:00,
2013-04-23 08:44:00,49.0,42.8,30.25,NE,40,3.0,-999.0,79,0.00,,,0.01,Wunderground v.1.15,2013-04-23 12:44:00,
2013-04-23 08:49:00,48.9,42.7,30.24,ENE,65,3.0,-999.0,79,0.00,,,0.01,Wunderground v.1.15,2013-04-23 12:49:00,
2013-04-23 08:55:00,49.2,43.0,30.24,NE,49,4.0,-999.0,79,0.00,,,0.01,Wunderground v.1.15,2013-04-23 12:55:00,
2013-04-23 09:01:00,49.2,42.6,30.24,NNE,26,4.0,-999.0,78,0.00,,,0.01,Wunderground v.1.15,2013-04-23 13:01:00,
2013-04-23 09:07:00,49.6,43.0,30.24,NNE,32,3.0,-999.0,78,0.00,,,0.01,Wunderground v.1.15,2013-04-23 13:07:00,
2013-04-23 09:12:00,50.0,42.7,30.24,NE,37,2.0,-999.0,76,0.00,,,0.01,Wunderground v.1.15,2013-04-23 13:12:00,
2013-04-23 09:18:00,50.4,43.1,30.24,NE,51,2.0,-999.0,76,0.00,,,0.01,Wunderground v.1.15,2013-04-23 13:18:00,
2013-04-23 09:24:00,50.3,43.0,30.24,NNE,25,2.0,-999.0,76,0.00,,,0.01,Wunderground v.1.15,2013-04-23 13:24:00,
2013-04-23 09:30:00,50.2,43.3,30.24,NE,35,4.0,-999.0,77,0.00,,,0.01,Wunderground v.1.15,2013-04-23 13:30:00,
2013-04-23 09:35:00,50.5,42.9,30.24,NNE,23,4.0,-999.0,75,0.00,,,0.01,Wunderground v.1.15,2013-04-23 13:35:00,
2013-04-23 09:42:00,50.7,43.1,30.24,North,10,4.0,-999.0,75,0.00,,,0.01,Wunderground v.1.15,2013-04-23 13:42:00,
2013-04-23 09:48:00,50.8,43.5,30.24,NE,47,4.0,-999.0,76,0.00,,,0.01,Wunderground v.1.15,2013-04-23 13:48:00,
2013-04-23 09:53:00,51.1,43.1,30.25,North,5,3.0,-999.0,74,0.00,,,0.01,Wunderground v.1.15,2013-04-23 13:53:00,
2013-04-23 09:59:00,51.0,43.0,30.24,NE,51,4.0,-999.0,74,0.00,,,0.01,Wunderground v.1.15,2013-04-23 13:59:00,
2013-04-23 10:05:00,51.1,42.7,30.25,NE,43,5.0,-999.0,73,0.00,,,0.01,Wunderground v.1.15,2013-04-23 14:05:00,
2013-04-23 10:11:00,51.2,42.8,30.25,NNE,23,4.0,-999.0,73,0.00,,,0.01,Wunderground v.1.15,2013-04-23 14:11:00,
2013-04-23 10:17:00,51.4,42.7,30.25,NNE,26,3.0,-999.0,72,0.00,,,0.01,Wunderground v.1.15,2013-04-23 14:17:00,
2013-04-23 10:22:00,51.5,43.5,30.25,North,360,3.0,-999.0,74,0.00,,,0.01,Wunderground v.1.15,2013-04-23 14:22:00,
2013-04-23 10:28:00,51.9,43.2,30.26,NE,38,2.0,-999.0,72,0.00,,,0.01,Wunderground v.1.15,2013-04-23 14:28:00,
2013-04-23 10:34:00,52.1,43.0,30.25,ENE,58,2.0,-999.0,71,0.00,,,0.01,Wunderground v.1.15,2013-04-23 14:34:00,
2013-04-23 10:39:00,52.3,42.8,30.25,NNE,28,2.0,-999.0,70,0.00,,,0.01,Wunderground v.1.15,2013-04-23 14:39:00,
2013-04-23 10:45:00,52.4,43.3,30.25,NNE,30,2.0,-999.0,71,0.00,,,0.01,Wunderground v.1.15,2013-04-23 14:45:00,
2013-04-23 10:51:00,53.0,43.5,30.25,North,10,2.0,-999.0,70,0.00,,,0.01,Wunderground v.1.15,2013-04-23 14:51:00,
2013-04-23 10:56:00,53.2,43.7,30.26,NNE,32,2.0,-999.0,70,0.00,,,0.01,Wunderground v.1.15,2013-04-23 14:56:00,
2013-04-23 11:02:00,53.3,43.0,30.26,NE,44,3.0,-999.0,68,0.00,,,0.01,Wunderground v.1.15,2013-04-23 15:02:00,
2013-04-23 11:08:00,53.6,43.3,30.26,NNE,20,3.0,-999.0,68,0.00,,,0.01,Wunderground v.1.15,2013-04-23 15:08:00,
2013-04-23 11:14:00,53.6,43.7,30.26,NNW,347,3.0,-999.0,69,0.00,,,0.01,Wunderground v.1.15,2013-04-23 15:14:00,
2013-04-23 11:19:00,54.1,43.8,30.25,South,189,2.0,-999.0,68,0.00,,,0.01,Wunderground v.1.15,2013-04-23 15:19:00,
2013-04-23 11:26:00,55.1,43.9,30.25,South,175,2.0,-999.0,66,0.00,,,0.01,Wunderground v.1.15,2013-04-23 15:26:00,
2013-04-23 11:32:00,55.8,43.8,30.25,NNE,15,2.0,-999.0,64,0.00,,,0.01,Wunderground v.1.15,2013-04-23 15:32:00,
2013-04-23 11:38:00,56.5,44.5,30.25,South,176,2.0,-999.0,64,0.00,,,0.01,Wunderground v.1.15,2013-04-23 15:38:00,
2013-04-23 11:44:00,56.4,43.5,30.26,NE,35,2.0,-999.0,62,0.00,,,0.01,Wunderground v.1.15,2013-04-23 15:44:00,
2013-04-23 11:50:00,55.8,43.4,30.27,NNW,327,3.0,-999.0,63,0.00,,,0.01,Wunderground v.1.15,2013-04-23 15:50:00,
2013-04-23 11:56:00,55.9,43.9,30.27,North,351,3.0,-999.0,64,0.00,,,0.01,Wunderground v.1.15,2013-04-23 15:56:00,
2013-04-23 12:01:00,56.2,45.4,30.25,WSW,243,2.0,-999.0,67,0.00,,,0.01,Wunderground v.1.15,2013-04-23 16:01:00,
2013-04-23 12:07:00,57.2,45.5,30.25,NNW,335,2.0,-999.0,65,0.00,,,0.01,Wunderground v.1.15,2013-04-23 16:07:00,
2013-04-23 12:13:00,57.2,44.7,30.25,NW,313,2.0,-999.0,63,0.00,,,0.01,Wunderground v.1.15,2013-04-23 16:13:00,
2013-04-23 12:19:00,57.7,44.3,30.25,NNE,32,2.0,-999.0,61,0.00,,,0.01,Wunderground v.1.15,2013-04-23 16:19:00,
2013-04-23 12:24:00,58.5,45.5,30.24,SW,234,1.0,-999.0,62,0.00,,,0.01,Wunderground v.1.15,2013-04-23 16:24:00,
2013-04-23 12:30:00,60.2,46.3,30.23,WNW,299,2.0,-999.0,60,0.00,,,0.01,Wunderground v.1.15,2013-04-23 16:30:00,
2013-04-23 12:36:00,59.9,45.5,30.23,WNW,292,2.0,-999.0,59,0.00,,,0.01,Wunderground v.1.15,2013-04-23 16:36:00,
2013-04-23 12:42:00,60.4,46.4,30.23,West,279,1.0,-999.0,60,0.00,,,0.01,Wunderground v.1.15,2013-04-23 16:42:00,
2013-04-23 12:47:00,61.3,45.5,30.23,East,100,1.0,-999.0,56,0.00,,,0.01,Wunderground v.1.15,2013-04-23 16:47:00,
2013-04-23 12:53:00,60.6,45.3,30.23,NW,311,3.0,-999.0,57,0.00,,,0.01,Wunderground v.1.15,2013-04-23 16:53:00,
2013-04-23 12:59:00,61.0,45.2,30.22,ESE,113,2.0,-999.0,56,0.00,,,0.01,Wunderground v.1.15,2013-04-23 16:59:00,
2013-04-23 13:05:00,61.7,45.8,30.22,South,178,2.0,-999.0,56,0.00,,,0.01,Wunderground v.1.15,2013-04-23 17:05:00,
2013-04-23 13:11:00,62.2,45.3,30.21,NNE,32,2.0,-999.0,54,0.00,,,0.01,Wunderground v.1.15,2013-04-23 17:11:00,
2013-04-23 13:17:00,62.3,45.4,30.21,NNW,329,2.0,-999.0,54,0.00,,,0.01,Wunderground v.1.15,2013-04-23 17:17:00,
2013-04-23 13:23:00,62.5,46.1,30.20,North,10,2.0,-999.0,55,0.00,,,0.01,Wunderground v.1.15,2013-04-23 17:23:00,
2013-04-23 13:28:00,63.0,44.6,30.20,NNE,27,3.0,-999.0,51,0.00,,,0.01,Wunderground v.1.15,2013-04-23 17:28:00,
2013-04-23 13:34:00,62.7,44.8,30.19,NNE,13,3.0,-999.0,52,0.00,,,0.01,Wunderground v.1.15,2013-04-23 17:34:00,
2013-04-23 13:40:00,62.3,44.9,30.19,NE,39,4.0,-999.0,53,0.00,,,0.01,Wunderground v.1.15,2013-04-23 17:40:00,
2013-04-23 13:46:00,62.8,45.4,30.18,NE,40,4.0,-999.0,53,0.00,,,0.01,Wunderground v.1.15,2013-04-23 17:46:00,
2013-04-23 13:52:00,63.8,48.3,30.18,SW,226,3.0,-999.0,57,0.00,,,0.01,Wunderground v.1.15,2013-04-23 17:52:00,
2013-04-23 13:58:00,64.3,47.8,30.18,SSE,165,2.0,-999.0,55,0.00,,,0.01,Wunderground v.1.15,2013-04-23 17:58:00,
2013-04-23 14:04:00,64.3,46.3,30.18,ESE,103,3.0,-999.0,52,0.00,,,0.01,Wunderground v.1.15,2013-04-23 18:04:00,
2013-04-23 14:10:00,64.4,46.9,30.18,WSW,255,3.0,-999.0,53,0.00,,,0.01,Wunderground v.1.15,2013-04-23 18:10:00,
2013-04-23 14:15:00,64.3,45.8,30.17,NW,305,2.0,-999.0,51,0.00,,,0.01,Wunderground v.1.15,2013-04-23 18:15:00,
2013-04-23 14:21:00,64.7,47.2,30.17,SW,215,2.0,-999.0,53,0.00,,,0.01,Wunderground v.1.15,2013-04-23 18:21:00,
2013-04-23 14:27:00,65.7,46.0,30.17,North,5,2.0,-999.0,49,0.00,,,0.01,Wunderground v.1.15,2013-04-23 18:27:00,
2013-04-23 14:32:00,66.2,45.9,30.17,North,355,2.0,-999.0,48,0.00,,,0.01,Wunderground v.1.15,2013-04-23 18:32:00,
2013-04-23 14:37:00,66.7,46.4,30.17,West,278,1.0,-999.0,48,0.00,,,0.01,Wunderground v.1.15,2013-04-23 18:37:00,
2013-04-23 14:43:00,66.4,48.2,30.16,South,176,2.0,-999.0,52,0.00,,,0.01,Wunderground v.1.15,2013-04-23 18:43:00,
2013-04-23 14:49:00,65.4,46.8,30.16,SW,216,4.0,-999.0,51,0.00,,,0.01,Wunderground v.1.15,2013-04-23 18:49:00,
2013-04-23 14:55:00,65.9,46.2,30.16,WNW,298,4.0,-999.0,49,0.00,,,0.01,Wunderground v.1.15,2013-04-23 18:55:00,
2013-04-23 15:00:00,66.8,47.0,30.16,West,270,2.0,-999.0,49,0.00,,,0.01,Wunderground v.1.15,2013-04-23 19:00:00,
2013-04-23 15:06:00,67.0,47.7,30.16,SSW,203,2.0,-999.0,50,0.00,,,0.01,Wunderground v.1.15,2013-04-23 19:06:00,
2013-04-23 15:12:00,67.5,47.1,30.16,SW,234,3.0,-999.0,48,0.00,,,0.01,Wunderground v.1.15,2013-04-23 19:12:00,
2013-04-23 15:17:00,67.3,48.5,30.15,SSW,198,2.0,-999.0,51,0.00,,,0.01,Wunderground v.1.15,2013-04-23 19:17:00,
2013-04-23 15:23:00,67.5,47.1,30.15,SW,225,2.0,-999.0,48,0.00,,,0.01,Wunderground v.1.15,2013-04-23 19:23:00,
2013-04-23 15:29:00,67.0,47.2,30.14,SW,231,3.0,-999.0,49,0.00,,,0.01,Wunderground v.1.15,2013-04-23 19:29:00,
2013-04-23 15:35:00,66.7,48.0,30.14,SSW,209,4.0,-999.0,51,0.00,,,0.01,Wunderground v.1.15,2013-04-23 19:35:00,
2013-04-23 15:40:00,66.8,47.6,30.14,South,178,3.0,-999.0,50,0.00,,,0.01,Wunderground v.1.15,2013-04-23 19:40:00,
2013-04-23 15:46:00,67.4,47.6,30.14,East,101,2.0,-999.0,49,0.00,,,0.01,Wunderground v.1.15,2013-04-23 19:46:00,
2013-04-23 15:52:00,67.7,47.3,30.13,West,281,2.0,-999.0,48,0.00,,,0.01,Wunderground v.1.15,2013-04-23 19:52:00,
2013-04-23 15:58:00,67.3,47.5,30.13,South,169,2.0,-999.0,49,0.00,,,0.01,Wunderground v.1.15,2013-04-23 19:58:00,
2013-04-23 16:03:00,67.0,47.2,30.13,SSW,194,3.0,-999.0,49,0.00,,,0.01,Wunderground v.1.15,2013-04-23 20:03:00,
2013-04-23 16:09:00,66.8,47.0,30.13,WSW,257,3.0,-999.0,49,0.00,,,0.01,Wunderground v.1.15,2013-04-23 20:09:00,
2013-04-23 16:15:00,67.4,47.6,30.13,NNE,15,1.0,-999.0,49,0.00,,,0.01,Wunderground v.1.15,2013-04-23 20:15:00,
2013-04-23 16:21:00,67.5,48.2,30.12,NW,326,1.0,-999.0,50,0.00,,,0.01,Wunderground v.1.15,2013-04-23 20:21:00,
2013-04-23 16:27:00,68.5,48.6,30.12,NW,311,1.0,-999.0,49,0.00,,,0.01,Wunderground v.1.15,2013-04-23 20:27:00,
2013-04-23 16:33:00,68.7,49.3,30.12,SSW,202,2.0,-999.0,50,0.00,,,0.01,Wunderground v.1.15,2013-04-23 20:33:00,
2013-04-23 16:39:00,68.3,47.8,30.11,SSE,166,2.0,-999.0,48,0.00,,,0.01,Wunderground v.1.15,2013-04-23 20:39:00,
2013-04-23 16:44:00,68.6,49.2,30.11,SW,229,2.0,-999.0,50,0.00,,,0.01,Wunderground v.1.15,2013-04-23 20:44:00,
2013-04-23 16:50:00,69.3,47.6,30.11,ESE,107,2.0,-999.0,46,0.00,,,0.01,Wunderground v.1.15,2013-04-23 20:50:00,
2013-04-23 16:56:00,69.4,47.7,30.11,NNW,335,2.0,-999.0,46,0.00,,,0.01,Wunderground v.1.15,2013-04-23 20:56:00,
2013-04-23 17:02:00,69.0,47.9,30.11,North,5,3.0,-999.0,47,0.00,,,0.01,Wunderground v.1.15,2013-04-23 21:02:00,
2013-04-23 17:07:00,69.4,48.9,30.11,WSW,241,2.0,-999.0,48,0.00,,,0.01,Wunderground v.1.15,2013-04-23 21:07:00,
2013-04-23 17:13:00,69.3,48.2,30.11,SW,224,2.0,-999.0,47,0.00,,,0.01,Wunderground v.1.15,2013-04-23 21:13:00,
2013-04-23 17:19:00,67.7,47.8,30.11,SSW,197,3.0,-999.0,49,0.00,,,0.01,Wunderground v.1.15,2013-04-23 21:19:00,
2013-04-23 17:25:00,68.2,48.8,30.11,SSW,205,2.0,-999.0,50,0.00,,,0.01,Wunderground v.1.15,2013-04-23 21:25:00,
2013-04-23 17:31:00,69.0,48.5,30.11,South,185,1.0,-999.0,48,0.00,,,0.01,Wunderground v.1.15,2013-04-23 21:31:00,
2013-04-23 17:37:00,68.9,48.4,30.11,SSW,203,2.0,-999.0,48,0.00,,,0.01,Wunderground v.1.15,2013-04-23 21:37:00,
2013-04-23 17:43:00,69.2,49.2,30.11,NNE,24,2.0,-999.0,49,0.00,,,0.01,Wunderground v.1.15,2013-04-23 21:43:00,
2013-04-23 17:49:00,69.0,49.0,30.11,South,186,2.0,-999.0,49,0.00,,,0.01,Wunderground v.1.15,2013-04-23 21:49:00,
2013-04-23 17:54:00,68.6,48.1,30.11,SSE,161,3.0,-999.0,48,0.00,,,0.01,Wunderground v.1.15,2013-04-23 21:54:00,
2013-04-23 18:00:00,68.9,48.9,30.10,West,268,2.0,-999.0,49,0.00,,,0.01,Wunderground v.1.15,2013-04-23 22:00:00,
2013-04-23 18:06:00,68.5,48.6,30.10,WSW,244,3.0,-999.0,49,0.00,,,0.01,Wunderground v.1.15,2013-04-23 22:06:00,
2013-04-23 18:12:00,67.8,48.5,30.10,SSW,213,3.0,-999.0,50,0.00,,,0.01,Wunderground v.1.15,2013-04-23 22:12:00,
2013-04-23 18:18:00,67.6,49.3,30.10,South,184,2.0,-999.0,52,0.00,,,0.01,Wunderground v.1.15,2013-04-23 22:18:00,
2013-04-23 18:24:00,66.9,48.7,30.10,SW,221,2.0,-999.0,52,0.00,,,0.01,Wunderground v.1.15,2013-04-23 22:24:00,
2013-04-23 18:30:00,67.1,49.9,30.10,WSW,243,2.0,-999.0,54,0.00,,,0.01,Wunderground v.1.15,2013-04-23 22:30:00,
2013-04-23 18:35:00,67.5,49.3,30.10,South,176,2.0,-999.0,52,0.00,,,0.01,Wunderground v.1.15,2013-04-23 22:35:00,
2013-04-23 18:41:00,67.9,49.1,30.10,SE,142,2.0,-999.0,51,0.00,,,0.01,Wunderground v.1.15,2013-04-23 22:41:00,
2013-04-23 18:47:00,67.4,48.6,30.10,WSW,238,2.0,-999.0,51,0.00,,,0.01,Wunderground v.1.15,2013-04-23 22:47:00,
2013-04-23 18:53:00,67.3,49.1,30.10,South,176,2.0,-999.0,52,0.00,,,0.01,Wunderground v.1.15,2013-04-23 22:53:00,
2013-04-23 18:58:00,67.2,49.5,30.09,South,187,2.0,-999.0,53,0.00,,,0.01,Wunderground v.1.15,2013-04-23 22:58:00,
2013-04-23 19:04:00,67.0,49.3,30.10,SSW,197,1.0,-999.0,53,0.00,,,0.01,Wunderground v.1.15,2013-04-23 23:04:00,
2013-04-23 19:10:00,66.3,49.6,30.10,SSW,197,2.0,-999.0,55,0.00,,,0.01,Wunderground v.1.15,2013-04-23 23:10:00,
2013-04-23 19:16:00,66.1,49.9,30.10,SSW,209,1.0,-999.0,56,0.00,,,0.01,Wunderground v.1.15,2013-04-23 23:16:00,
2013-04-23 19:22:00,65.8,49.7,30.10,South,178,1.0,-999.0,56,0.00,,,0.01,Wunderground v.1.15,2013-04-23 23:22:00,
2013-04-23 19:28:00,65.3,49.7,30.11,SSW,201,2.0,-999.0,57,0.00,,,0.01,Wunderground v.1.15,2013-04-23 23:28:00,
2013-04-23 19:34:00,65.1,49.5,30.11,South,188,1.0,-999.0,57,0.00,,,0.01,Wunderground v.1.15,2013-04-23 23:34:00,
2013-04-23 19:39:00,64.9,49.8,30.11,South,180,1.0,-999.0,58,0.00,,,0.01,Wunderground v.1.15,2013-04-23 23:39:00,
2013-04-23 19:45:00,64.6,50.4,30.11,South,180,1.0,-999.0,60,0.00,,,0.01,Wunderground v.1.15,2013-04-23 23:45:00,
2013-04-23 19:51:00,64.2,50.0,30.11,South,180,0.0,-999.0,60,0.00,,,0.01,Wunderground v.1.15,2013-04-23 23:51:00,
2013-04-23 19:57:00,63.5,50.2,30.11,South,180,0.0,-999.0,62,0.00,,,0.01,Wunderground v.1.15,2013-04-23 23:57:00,
2013-04-23 20:02:00,63.2,50.8,30.11,South,180,0.0,-999.0,64,0.00,,,0.01,Wunderground v.1.15,2013-04-24 00:02:00,
2013-04-23 20:08:00,62.2,51.1,30.10,South,180,0.0,-999.0,67,0.00,,,0.01,Wunderground v.1.15,2013-04-24 00:08:00,
2013-04-23 20:14:00,61.2,50.9,30.11,South,180,0.0,-999.0,69,0.00,,,0.01,Wunderground v.1.15,2013-04-24 00:14:00,
2013-04-23 20:20:00,60.5,50.7,30.11,South,180,0.0,-999.0,70,0.00,,,0.01,Wunderground v.1.15,2013-04-24 00:20:00,
2013-04-23 20:26:00,60.3,50.9,30.11,South,180,0.0,-999.0,71,0.00,,,0.01,Wunderground v.1.15,2013-04-24 00:26:00,
2013-04-23 20:32:00,60.1,50.7,30.11,South,180,0.0,-999.0,71,0.00,,,0.01,Wunderground v.1.15,2013-04-24 00:32:00,
2013-04-23 20:38:00,59.7,50.7,30.12,South,180,0.0,-999.0,72,0.00,,,0.01,Wunderground v.1.15,2013-04-24 00:38:00,
2013-04-23 20:43:00,59.3,50.6,30.12,South,180,0.0,-999.0,73,0.00,,,0.01,Wunderground v.1.15,2013-04-24 00:43:00,
2013-04-23 20:49:00,58.9,50.6,30.12,South,180,0.0,-999.0,74,0.00,,,0.01,Wunderground v.1.15,2013-04-24 00:49:00,
2013-04-23 20:55:00,58.7,50.4,30.12,South,180,0.0,-999.0,74,0.00,,,0.01,Wunderground v.1.15,2013-04-24 00:55:00,
2013-04-23 21:01:00,58.4,50.5,30.12,South,180,0.0,-999.0,75,0.00,,,0.01,Wunderground v.1.15,2013-04-24 01:01:00,
2013-04-23 21:06:00,58.1,50.6,30.12,South,169,0.0,-999.0,76,0.00,,,0.01,Wunderground v.1.15,2013-04-24 01:06:00,
2013-04-23 21:12:00,58.0,50.5,30.12,South,169,0.0,-999.0,76,0.00,,,0.01,Wunderground v.1.15,2013-04-24 01:12:00,
2013-04-23 21:18:00,58.2,51.0,30.12,South,169,0.0,-999.0,77,0.00,,,0.01,Wunderground v.1.15,2013-04-24 01:18:00,
2013-04-23 21:24:00,57.8,50.6,30.12,South,169,0.0,-999.0,77,0.00,,,0.01,Wunderground v.1.15,2013-04-24 01:24:00,
2013-04-23 21:30:00,57.5,50.7,30.12,South,169,0.0,-999.0,78,0.00,,,0.01,Wunderground v.1.15,2013-04-24 01:30:00,
2013-04-23 21:36:00,57.2,50.4,30.12,South,169,0.0,-999.0,78,0.00,,,0.01,Wunderground v.1.15,2013-04-24 01:36:00,
2013-04-23 21:42:00,57.1,50.6,30.12,South,169,0.0,-999.0,79,0.00,,,0.01,Wunderground v.1.15,2013-04-24 01:42:00,
2013-04-23 21:47:00,57.0,50.5,30.13,South,169,1.0,-999.0,79,0.00,,,0.01,Wunderground v.1.15,2013-04-24 01:47:00,
2013-04-23 21:53:00,57.3,50.8,30.12,SE,144,1.0,-999.0,79,0.00,,,0.01,Wunderground v.1.15,2013-04-24 01:53:00,
2013-04-23 21:59:00,57.4,50.6,30.12,SE,145,1.0,-999.0,78,0.00,,,0.01,Wunderground v.1.15,2013-04-24 01:59:00,
2013-04-23 22:05:00,57.7,50.9,30.12,South,171,0.0,-999.0,78,0.00,,,0.01,Wunderground v.1.15,2013-04-24 02:05:00,
2013-04-23 22:10:00,58.2,51.0,30.12,SE,136,1.0,-999.0,77,0.00,,,0.01,Wunderground v.1.15,2013-04-24 02:10:00,
2013-04-23 22:16:00,58.8,51.2,30.12,South,172,1.0,-999.0,76,0.00,,,0.01,Wunderground v.1.15,2013-04-24 02:16:00,
2013-04-23 22:22:00,59.0,51.4,30.11,South,189,1.0,-999.0,76,0.00,,,0.01,Wunderground v.1.15,2013-04-24 02:22:00,
2013-04-23 22:29:00,59.1,51.2,30.11,WSW,249,1.0,-999.0,75,0.00,,,0.01,Wunderground v.1.15,2013-04-24 02:29:00,
2013-04-23 22:35:00,58.9,51.3,30.11,South,175,1.0,-999.0,76,0.00,,,0.01,Wunderground v.1.15,2013-04-24 02:35:00,
2013-04-23 22:41:00,58.7,51.2,30.12,WSW,253,2.0,-999.0,76,0.00,,,0.01,Wunderground v.1.15,2013-04-24 02:41:00,
2013-04-23 22:47:00,58.6,51.1,30.12,West,260,2.0,-999.0,76,0.00,,,0.01,Wunderground v.1.15,2013-04-24 02:47:00,
2013-04-23 22:52:00,58.6,51.1,30.12,WSW,242,2.0,-999.0,76,0.00,,,0.01,Wunderground v.1.15,2013-04-24 02:52:00,
2013-04-23 22:59:00,58.6,51.4,30.12,West,271,2.0,-999.0,77,0.00,,,0.01,Wunderground v.1.15,2013-04-24 02:59:00,
2013-04-23 23:06:00,58.4,51.2,30.12,SSW,210,2.0,-999.0,77,0.00,,,0.01,Wunderground v.1.15,2013-04-24 03:06:00,
2013-04-23 23:12:00,58.1,51.3,30.11,SSW,201,3.0,-999.0,78,0.00,,,0.01,Wunderground v.1.15,2013-04-24 03:12:00,
2013-04-23 23:17:00,57.8,51.0,30.11,SSW,198,2.0,-999.0,78,0.00,,,0.01,Wunderground v.1.15,2013-04-24 03:17:00,
2013-04-23 23:23:00,57.8,51.0,30.12,SW,223,2.0,-999.0,78,0.00,,,0.01,Wunderground v.1.15,2013-04-24 03:23:00,
2013-04-23 23:28:00,57.7,51.2,30.11,South,186,2.0,-999.0,79,0.00,,,0.01,Wunderground v.1.15,2013-04-24 03:28:00,
2013-04-23 23:34:00,57.6,51.1,30.12,SW,222,2.0,-999.0,79,0.00,,,0.01,Wunderground v.1.15,2013-04-24 03:34:00,
2013-04-23 23:40:00,57.4,50.9,30.11,WSW,251,2.0,-999.0,79,0.00,,,0.01,Wunderground v.1.15,2013-04-24 03:40:00,
2013-04-23 23:45:00,57.2,51.1,30.11,SW,233,2.0,-999.0,80,0.00,,,0.01,Wunderground v.1.15,2013-04-24 03:45:00,
2013-04-23 23:50:00,57.1,51.0,30.11,SSE,150,1.0,-999.0,80,0.00,,,0.01,Wunderground v.1.15,2013-04-24 03:50:00,
2013-04-23 23:59:00,56.8,50.7,30.11,SSW,192,0.0,-999.0,80,0.00,,,0.01,Wunderground v.1.15,2013-04-24 03:59:00,